TimeCST,TemperatureF,Dew PointF,Humidity,Sea Level PressureIn,VisibilityMPH,Wind Direction,Wind SpeedMPH,Gust SpeedMPH,PrecipitationIn,Events,Conditions,WindDirDegrees,DateUTC
12:53 AM,46.0,32.0,58,29.96,10.0,South,11.5,-,N/A,,Clear,170,2012-01-27 06:53:00
1:53 AM,46.0,30.0,54,29.94,10.0,South,11.5,-,N/A,,Clear,170,2012-01-27 07:53:00
2:53 AM,46.9,30.9,54,29.92,10.0,SSW,13.8,-,N/A,,Clear,200,2012-01-27 08:53:00
3:53 AM,48.9,28.9,46,29.88,10.0,SSW,12.7,-,N/A,,Clear,210,2012-01-27 09:53:00
4:53 AM,46.9,30.0,52,29.85,10.0,SSW,16.1,-,N/A,,Clear,210,2012-01-27 10:53:00
5:53 AM,48.9,28.9,46,29.84,10.0,SW,15.0,-,N/A,,Clear,220,2012-01-27 11:53:00
7:53 AM,50.0,27.0,41,29.88,10.0,SSW,13.8,-,N/A,,Clear,210,2012-01-27 13:53:00
8:53 AM,54.0,28.0,37,29.89,10.0,SW,18.4,-,N/A,,Clear,230,2012-01-27 14:53:00
10:53 AM,64.9,30.0,27,29.90,10.0,SW,18.4,-,N/A,,Clear,230,2012-01-27 16:53:00
11:53 AM,70.0,30.0,23,29.88,10.0,WSW,17.3,24.2,N/A,,Clear,240,2012-01-27 17:53:00
12:53 PM,73.9,28.0,18,29.87,10.0,WNW,19.6,25.3,N/A,,Clear,290,2012-01-27 18:53:00
1:53 PM,73.0,26.1,17,29.86,10.0,NW,18.4,26.5,N/A,,Clear,310,2012-01-27 19:53:00
2:53 PM,73.9,25.0,16,29.85,10.0,WNW,16.1,24.2,N/A,,Clear,300,2012-01-27 20:53:00
3:53 PM,73.9,25.0,16,29.85,10.0,WNW,12.7,20.7,N/A,,Clear,290,2012-01-27 21:53:00
4:53 PM,73.0,25.0,17,29.86,10.0,WNW,12.7,-,N/A,,Clear,290,2012-01-27 22:53:00
5:53 PM,69.1,28.0,22,29.88,10.0,NW,6.9,-,N/A,,Clear,310,2012-01-27 23:53:00
6:53 PM,62.1,30.9,31,29.92,10.0,North,5.8,-,N/A,,Clear,350,2012-01-28 00:53:00
8:53 PM,57.0,30.0,36,29.97,10.0,NW,3.5,-,N/A,,Clear,310,2012-01-28 02:53:00
9:53 PM,55.9,30.9,39,30.01,10.0,NE,18.4,26.5,N/A,,Clear,50,2012-01-28 03:53:00
10:05 PM,55.4,33.8,44,30.11,10.0,NE,19.6,28.8,N/A,,Clear,50,2012-01-28 04:05:00
10:53 PM,51.1,34.0,52,30.08,10.0,NE,15.0,-,N/A,,Clear,50,2012-01-28 04:53:00
11:53 PM,48.0,34.0,58,30.13,10.0,ENE,9.2,-,N/A,,Clear,60,2012-01-28 05:53:00